Date,TemperatureHighF,TemperatureAvgF,TemperatureLowF,DewpointHighF,DewpointAvgF,DewpointLowF,HumidityHigh,HumidityAvg,HumidityLow,PressureMaxIn,PressureMinIn,WindSpeedMaxMPH,WindSpeedAvgMPH,GustSpeedMaxMPH,PrecipitationSumIn
2013-1-1,23.0,21.1,19.0,16.0,11.4,8.0,76,66,58,30.11,29.99,11,4,197,0.00
2013-1-2,26.0,23.3,21.0,20.0,16.2,12.0,81,74,66,30.10,29.97,10,2,10,0.00
2013-1-3,29.0,26.6,23.0,23.0,20.6,18.0,85,78,68,30.04,29.94,15,3,197,0.00
2013-1-4,33.0,27.3,25.0,26.0,20.9,18.0,88,77,68,30.08,29.85,19,6,197,0.00
2013-1-5,36.0,30.0,21.0,30.0,22.7,17.0,85,74,62,30.17,29.83,10,2,160,0.13
2013-1-6,36.0,30.4,28.0,30.0,23.9,20.0,84,76,70,30.23,29.81,10,4,16,0.03
2013-1-7,40.0,32.7,26.0,29.0,22.7,18.0,75,66,54,30.23,29.88,23,6,25,0.06
2013-1-8,44.0,35.2,28.0,30.0,27.7,24.0,88,74,58,30.12,29.94,9,2,14,0.05
2013-1-9,39.0,36.7,31.0,32.0,27.0,23.0,76,68,62,30.40,29.79,13,5,24,0.09
2013-1-10,42.0,32.4,23.0,28.0,23.9,19.0,88,72,50,30.52,30.10,5,1,12,0.08
2013-1-11,44.0,39.4,34.0,43.0,37.2,25.0,97,92,60,30.10,29.64,8,3,125,0.03
2013-1-12,52.0,44.4,35.0,46.0,38.0,28.0,97,79,55,29.94,29.60,21,6,27,0.01
2013-1-13,34.0,30.6,27.0,30.0,27.7,21.0,92,88,77,29.97,29.83,9,2,190,0.01
2013-1-14,27.0,22.3,19.0,21.0,14.0,9.0,86,70,55,30.34,29.96,12,4,197,0.01
2013-1-15,27.0,22.6,15.0,18.0,12.8,7.0,75,65,57,30.35,30.04,12,4,197,0.01
2013-1-16,30.0,26.0,22.0,27.0,20.0,14.0,92,78,64,30.04,29.62,16,5,22,0.00
2013-1-17,24.0,15.5,13.0,15.0,5.0,-2.0,81,63,48,30.29,29.95,13,5,21,0.00
2013-1-18,38.0,20.2,12.0,32.0,12.8,1.0,86,73,57,30.33,29.71,11,3,197,0.00
2013-1-19,38.0,33.1,28.0,36.0,30.0,24.0,94,89,79,29.80,29.42,13,3,23,0.83
2013-1-20,28.0,15.0,11.0,26.0,7.8,3.0,91,73,62,30.12,29.45,21,6,197,0.71
2013-1-21,11.0,7.5,1.0,7.0,1.8,-5.0,82,77,68,30.06,29.92,12,3,16,0.00
2013-1-22,7.0,3.2,1.0,1.0,-2.8,-5.0,76,75,72,30.19,30.03,6,2,10,0.00
2013-1-23,13.0,10.4,7.0,8.0,4.9,0.0,83,78,71,30.18,30.01,5,2,10,0.00
2013-1-24,13.0,3.6,-8.0,1.0,-4.1,-15.0,80,70,57,30.62,30.29,4,1,6,0.10
2013-1-25,19.0,13.6,6.0,14.0,7.7,-2.0,83,77,67,30.44,29.94,8,2,11,0.01
2013-1-26,27.0,19.8,16.0,18.0,14.0,12.0,86,78,63,30.34,30.01,3,0,4,0.03
2013-1-27,29.0,25.3,19.0,25.0,19.6,14.0,89,79,67,30.38,30.03,10,3,11,0.01
2013-1-28,33.0,30.2,27.0,31.0,27.7,24.0,93,90,87,30.03,29.81,6,1,8,0.00
2013-1-29,43.0,34.6,29.0,42.0,32.3,26.0,96,92,88,29.98,29.44,7,3,11,0.42
2013-1-30,34.0,30.2,20.0,33.0,28.4,16.0,95,93,86,29.47,29.11,14,6,23,0.24
2013-1-31,19.0,16.1,14.0,16.0,12.2,9.0,87,84,78,29.82,29.22,12,6,18,0.01